[[{"header":{"parameterUnit":"m.s-1","parameterCategory":1,"la1":30.2992,"la2":30.254,"lo1":-89.0895,"lo2":-89.0443,"dy":0.0025,"dx":0.0025,"nx":19,"ny":19,"refTime":"2026-04-25T21:00:00:Z","depth":0,"parameterNumber":2,"parameterNumberName":"U-component_of_WINDS"},"data":[0,0,0,1.879,1.8792,1.8888,1.8889,1.9029,1.903,0,0,0,0,0,0,0,0,0,0,0,1.8772,1.8774,1.879,1.8793,1.8888,1.8889,1.9029,1.903,0,0,0,0,0,0,0,0,0,0,0,1.8772,1.8773,1.8775,1.8793,1.8888,1.8889,1.9028,1.895,0,0,0,0,0,0,0,0,0,0,1.8854,1.8848,1.8773,1.8775,1.8794,1.8888,1.8889,1.8946,1.8955,1.8993,0,1.903,0,1.9032,1.9041,1.9041,0,0,0,1.8785,1.8841,1.8856,1.8775,1.8795,1.8888,1.8843,1.895,1.8961,1.9005,1.9032,1.9036,1.9035,1.9042,1.9042,1.9288,1.9289,0,0,1.8779,1.8796,1.885,1.8864,1.885,1.884,1.8846,1.8956,1.8987,1.9032,1.9039,1.9037,1.9043,1.9044,1.9286,1.9288,0,0,0,1.877,1.8792,1.8805,1.8858,1.8874,1.8843,1.885,1.8982,1.8984,1.9041,1.9039,1.9044,1.9046,1.9285,1.9287,1.9376,0,0,0,1.8766,1.8787,1.8803,1.8814,1.8873,1.8929,1.8873,1.8977,1.8989,1.9038,1.9044,1.9047,1.9283,1.9286,1.937,1.9416,0,0,0,1.8763,1.8786,1.8803,1.8815,1.8857,1.8927,1.8936,1.8979,1.8988,1.9041,1.9048,1.9282,1.9286,1.9365,1.9407,1.9483,0,0,0,1.8764,1.8883,1.8805,1.8937,1.8856,1.8982,1.8935,1.9028,1.9085,1.9045,1.9283,1.9287,1.9363,1.9401,1.9478,1.9549,1.9581,0,0,1.8923,1.8903,1.8979,1.8912,1.9056,1.8966,1.9122,1.916,1.9151,1.9243,1.9248,1.9372,1.9406,1.9482,1.9757,1.9782,0,0,0,1.9035,1.909,1.9125,1.9179,1.9209,1.9238,1.9249,1.9263,1.934,1.9201,1.9421,1.9441,1.9484,1.9518,1.954,1.9575,1.9304,1.9303,1.9303,1.9284,1.9265,1.9389,1.9381,1.9434,1.9443,1.9484,1.9503,1.947,1.9522,1.9549,1.9718,1.9758,1.9774,1.9811,1.9586,1.9587,1.9587,1.9587,1.9514,1.9588,1.9539,1.9641,1.962,1.9706,1.9719,1.9692,1.9769,1.9697,1.9734,1.9655,1.9802,1.9834,1.9594,1.9593,1.9592,1.9591,1.9591,1.9674,1.9705,1.9719,1.9793,1.9853,1.9841,1.9916,1.9894,1.9875,1.9912,1.9937,1.9935,1.9929,1.9926,1.9926,1.9927,1.9927,1.9928,1.9928,1.9833,1.9845,1.9911,1.9952,1.9982,2.002,2.003,2.0059,2.0086,2.0065,2.0065,2.0025,1.9821,1.9769,1.9937,1.9936,1.9934,1.9934,1.9933,2.007,2.0013,2.0114,2.0145,2.019,2.0249,2.0221,2.0283,2.0304,2.0342,2.0293,2.0147,2.0125,2.0107,2.0064,2.0298,2.0298,2.0298,2.0298,2.0203,2.019,2.0287,2.0337,2.0384,2.0368,2.0482,2.049,2.049,2.0501,2.0465,2.0406,2.0389,2.0377,2.0354,2.0313,2.0605,2.0606,2.0606,2.0347,2.0337,2.0438,2.0436,2.047,2.0499,2.0604,2.0663,2.0651,2.0618,2.051,2.0497,2.0402,2.0372,2.0336,2.03,2.0225,0,0]},{"header":{"parameterUnit":"m.s-1","parameterCategory":1,"la1":30.2992,"la2":30.254,"lo1":-89.0895,"lo2":-89.0443,"dy":0.0025,"dx":0.0025,"nx":19,"ny":19,"refTime":"2026-04-25T21:00:00:Z","depth":0,"parameterNumber":3,"parameterNumberName":"V-component_of_WINDS"},"data":[0,0,0,1.3544,1.3545,1.3617,1.3617,1.3707,1.3707,0,0,0,0,0,0,0,0,0,0,0,1.3523,1.3524,1.3544,1.3546,1.3617,1.3617,1.3706,1.3707,0,0,0,0,0,0,0,0,0,0,0,1.3523,1.3523,1.3524,1.3546,1.3617,1.3617,1.3706,1.3653,0,0,0,0,0,0,0,0,0,0,1.3584,1.3565,1.3523,1.3524,1.3546,1.3617,1.3617,1.365,1.3656,1.3674,0,1.3691,0,1.3701,1.3713,1.3714,0,0,0,1.3545,1.356,1.3579,1.3524,1.3547,1.3617,1.3584,1.3653,1.366,1.3682,1.3692,1.3695,1.3702,1.3714,1.3714,1.3821,1.3821,0,0,1.3541,1.3536,1.3575,1.3583,1.3574,1.3582,1.3587,1.3657,1.3668,1.3692,1.3698,1.3704,1.3714,1.3715,1.382,1.3821,0,0,0,1.353,1.3533,1.355,1.358,1.3593,1.3584,1.3589,1.3665,1.3671,1.3699,1.3705,1.3715,1.3716,1.382,1.382,1.3841,0,0,0,1.3528,1.3527,1.3549,1.3546,1.3592,1.363,1.3595,1.3666,1.3674,1.3704,1.3715,1.3717,1.3819,1.382,1.3839,1.3851,0,0,0,1.3518,1.3526,1.3536,1.3546,1.3576,1.3629,1.3639,1.3668,1.3678,1.3714,1.3717,1.3819,1.382,1.3838,1.3849,1.3878,0,0,0,1.3506,1.3553,1.3536,1.3591,1.3576,1.3642,1.3639,1.3688,1.3721,1.3715,1.3819,1.382,1.3837,1.3847,1.3876,1.3901,1.3911,0,0,1.3562,1.356,1.3592,1.3579,1.3647,1.3631,1.3701,1.3736,1.3744,1.3794,1.3797,1.384,1.3849,1.3877,1.3969,1.3976,0,0,0,1.3608,1.3631,1.365,1.3682,1.371,1.3735,1.3759,1.3772,1.3815,1.3769,1.3858,1.3864,1.388,1.3893,1.3899,1.3914,1.3826,1.3826,1.3825,1.368,1.3688,1.3741,1.3758,1.3788,1.3813,1.3838,1.3859,1.3858,1.3878,1.3893,1.3948,1.3962,1.3967,1.3982,1.3907,1.3907,1.3907,1.3907,1.3762,1.3796,1.3793,1.3845,1.3852,1.3895,1.392,1.3917,1.3957,1.3938,1.3953,1.393,1.3976,1.3989,1.3909,1.3909,1.3909,1.3908,1.3908,1.381,1.3828,1.3843,1.3888,1.3922,1.3936,1.3975,1.398,1.3985,1.4,1.4016,1.4016,1.4016,1.4008,1.4008,1.4008,1.4008,1.4008,1.4009,1.3854,1.387,1.3903,1.3936,1.3956,1.3983,1.4008,1.4028,1.4051,1.4051,1.4052,1.4048,1.3979,1.3961,1.4012,1.4011,1.4011,1.401,1.401,1.3935,1.3917,1.3967,1.3988,1.4026,1.4059,1.4065,1.4105,1.4122,1.414,1.4133,1.4082,1.4079,1.4074,1.4059,1.4132,1.4132,1.4132,1.4132,1.3975,1.3974,1.4026,1.4058,1.409,1.4101,1.4155,1.4174,1.4191,1.4202,1.4192,1.4173,1.4167,1.4168,1.4161,1.4147,1.4241,1.4241,1.4241,1.4025,1.4027,1.4074,1.4091,1.4121,1.4146,1.4198,1.4234,1.4249,1.4245,1.421,1.4205,1.4175,1.4165,1.4161,1.4149,1.4125,0,0]}]]